• In Norway
  • List of Countries
  • For 7 days
  • Water Temperature
  • Satellite Maps
  • Weather Map
  • Weather Widgets
  • user-avatar
    Login

    Hourly Weather Kukini

    Today, 23 October, Tuesday

    Time Temperature Precipitation Wind Pressure Humidity
    00:00 +6°C° 0 mm 4 mps 747 mmHg 89%
    01:00 +5°C° 0 mm 3 mps 747 mmHg 91%
    02:00 +4°C° 0 mm 3 mps 747 mmHg 94%
    03:00 +3°C° 0 mm 3 mps 746 mmHg 94%
    04:00 +3°C° 0 mm 3 mps 746 mmHg 94%
    05:00 +3°C° 0 mm 3 mps 745 mmHg 94%
    06:00 +3°C° 0 mm 4 mps 745 mmHg 93%
    07:00 +3°C° 0 mm 4 mps 744 mmHg 91%
    08:00 +2°C° 0 mm 5 mps 743 mmHg 89%
    09:00 +3°C° 0.1 mm 6 mps 742 mmHg 85%
    10:00 +4°C° 0.1 mm 6 mps 741 mmHg 81%
    11:00 +4°C° 0.1 mm 7 mps 740 mmHg 77%
    12:00 +4°C° 0.9 mm 7 mps 738 mmHg 77%
    13:00 +4°C° 0.9 mm 8 mps 737 mmHg 77%
    14:00 +4°C° 0.9 mm 8 mps 736 mmHg 78%
    15:00 +4°C° 1.1 mm 8 mps 734 mmHg 79%
    16:00 +4°C° 1.1 mm 8 mps 732 mmHg 80%
    17:00 +2°C° 1.1 mm 8 mps 731 mmHg 82%
    18:00 +4°C° 0.9 mm 8 mps 729 mmHg 84%
    19:00 +4°C° 0.9 mm 8 mps 728 mmHg 85%
    20:00 +4°C° 0.9 mm 7 mps 727 mmHg 87%
    21:00 +5°C° 0.3 mm 7 mps 726 mmHg 87%
    22:00 +5°C° 0.3 mm 6 mps 726 mmHg 88%
    23:00 +6°C° 0.3 mm 5 mps 725 mmHg 88%

    Tomorrow, 24 October, Wednesday

    Time Temperature Precipitation Wind Pressure Humidity
    00:00 +6°C° 0.2 mm 5 mps 725 mmHg 88%
    01:00 +5°C° 0.2 mm 5 mps 724 mmHg 88%
    02:00 +5°C° 0.2 mm 5 mps 724 mmHg 88%
    03:00 +3°C° 0 mm 5 mps 724 mmHg 88%
    04:00 +3°C° 0 mm 5 mps 724 mmHg 87%
    05:00 +2°C° 0 mm 5 mps 724 mmHg 87%
    06:00 +2°C° 0 mm 6 mps 724 mmHg 85%
    07:00 +2°C° 0 mm 6 mps 724 mmHg 83%
    08:00 +2°C° 0 mm 6 mps 724 mmHg 81%
    09:00 +2°C° 0.5 mm 7 mps 724 mmHg 80%
    10:00 +2°C° 0.5 mm 8 mps 724 mmHg 78%
    11:00 +2°C° 0.5 mm 9 mps 724 mmHg 76%
    12:00 +3°C° 0.9 mm 9 mps 724 mmHg 78%
    13:00 +4°C° 0.9 mm 8 mps 724 mmHg 80%
    14:00 +4°C° 0.9 mm 8 mps 724 mmHg 81%
    15:00 +4°C° 0.6 mm 8 mps 724 mmHg 82%
    16:00 +3°C° 0.6 mm 9 mps 725 mmHg 82%
    17:00 +5°C° 0.6 mm 9 mps 726 mmHg 82%
    18:00 +3°C° 0.2 mm 9 mps 727 mmHg 81%
    19:00 +3°C° 0.2 mm 9 mps 728 mmHg 80%
    20:00 +3°C° 0.2 mm 9 mps 729 mmHg 79%
    21:00 +3°C° 0.1 mm 9 mps 730 mmHg 78%
    22:00 +3°C° 0.1 mm 9 mps 731 mmHg 77%
    23:00 +2°C° 0.1 mm 9 mps 732 mmHg 77%

    Day after tomorrow, 25 October, Thursday

    Time Temperature Precipitation Wind Pressure Humidity
    00:00 +2°C° 0 mm 8 mps 733 mmHg 78%
    01:00 +1°C° 0 mm 8 mps 734 mmHg 79%
    02:00 +2°C° 0 mm 7 mps 734 mmHg 80%
    03:00 +2°C° 0 mm 7 mps 734 mmHg 81%
    04:00 +1°C° 0 mm 6 mps 735 mmHg 82%
    05:00 +1°C° 0 mm 6 mps 735 mmHg 83%
    06:00 +1°C° 0 mm 5 mps 735 mmHg 84%
    07:00 +1°C° 0 mm 5 mps 735 mmHg 86%
    08:00 +1°C° 0 mm 5 mps 735 mmHg 87%
    09:00 +2°C° 0 mm 5 mps 735 mmHg 82%
    10:00 +3°C° 0 mm 5 mps 735 mmHg 77%
    11:00 +5°C° 0 mm 5 mps 735 mmHg 72%
    12:00 +5°C° 0.2 mm 5 mps 734 mmHg 71%
    13:00 +5°C° 0.2 mm 5 mps 733 mmHg 70%
    14:00 +5°C° 0.2 mm 5 mps 733 mmHg 69%
    15:00 +4°C° 0.7 mm 4 mps 732 mmHg 74%
    16:00 +4°C° 0.7 mm 3 mps 732 mmHg 80%
    17:00 +4°C° 0.7 mm 2 mps 731 mmHg 85%
    18:00 +4°C° 0.3 mm 2 mps 731 mmHg 86%
    19:00 +4°C° 0.3 mm 2 mps 731 mmHg 87%
    20:00 +4°C° 0.3 mm 2 mps 732 mmHg 88%
    21:00 +3°C° 0 mm 2 mps 732 mmHg 90%
    22:00 +3°C° 0 mm 2 mps 733 mmHg 91%
    23:00 +2°C° 0 mm 2 mps 733 mmHg 93%

    26 October, Friday

    Time Temperature Precipitation Wind Pressure Humidity
    00:00 +2°C° 0 mm 2 mps 734 mmHg 93%
    01:00 +2°C° 0 mm 2 mps 734 mmHg 94%
    02:00 +1°C° 0 mm 2 mps 734 mmHg 95%
    03:00 +2°C° 0.1 mm 2 mps 734 mmHg 95%
    04:00 +1°C° 0.1 mm 3 mps 735 mmHg 95%
    05:00 +2°C° 0.1 mm 3 mps 735 mmHg 95%
    06:00 +1°C° 0.1 mm 4 mps 735 mmHg 94%
    07:00 +3°C° 0.1 mm 4 mps 735 mmHg 93%
    08:00 +2°C° 0.1 mm 5 mps 736 mmHg 92%
    09:00 +3°C° 0 mm 5 mps 736 mmHg 86%
    10:00 +5°C° 0 mm 5 mps 736 mmHg 80%
    11:00 +6°C° 0 mm 5 mps 737 mmHg 74%
    12:00 +6°C° 0 mm 5 mps 737 mmHg 72%
    13:00 +7°C° 0 mm 4 mps 737 mmHg 70%
    14:00 +7°C° 0 mm 4 mps 737 mmHg 67%
    15:00 +6°C° 0 mm 4 mps 737 mmHg 73%
    16:00 +6°C° 0 mm 4 mps 737 mmHg 78%
    17:00 +5°C° 0 mm 3 mps 737 mmHg 83%
    18:00 +5°C° 0 mm 4 mps 736 mmHg 84%
    19:00 +5°C° 0 mm 4 mps 736 mmHg 84%
    20:00 +5°C° 0 mm 5 mps 736 mmHg 85%
    21:00 +5°C° 0.1 mm 5 mps 735 mmHg 86%
    22:00 +4°C° 0.1 mm 6 mps 734 mmHg 86%
    23:00 +5°C° 0.1 mm 6 mps 734 mmHg 87%

    27 October, Saturday

    Time Temperature Precipitation Wind Pressure Humidity
    00:00 +5°C° 0.2 mm 6 mps 733 mmHg 86%
    01:00 +6°C° 0.2 mm 7 mps 733 mmHg 85%
    02:00 +6°C° 0.2 mm 7 mps 732 mmHg 84%
    03:00 +6°C° 0.1 mm 7 mps 732 mmHg 83%
    04:00 +6°C° 0.1 mm 8 mps 732 mmHg 81%
    05:00 +5°C° 0.1 mm 8 mps 731 mmHg 79%
    06:00 +5°C° 0.1 mm 8 mps 732 mmHg 78%
    07:00 +4°C° 0.1 mm 8 mps 732 mmHg 77%
    08:00 +4°C° 0.1 mm 8 mps 732 mmHg 76%
    09:00 +4°C° 0 mm 8 mps 733 mmHg 72%
    10:00 +3°C° 0 mm 9 mps 733 mmHg 67%
    11:00 +5°C° 0 mm 10 mps 733 mmHg 63%
    12:00 +5°C° 0 mm 10 mps 733 mmHg 62%
    13:00 +5°C° 0 mm 10 mps 733 mmHg 61%
    14:00 +4°C° 0 mm 11 mps 733 mmHg 60%
    15:00 +5°C° 0 mm 10 mps 734 mmHg 62%
    16:00 +5°C° 0 mm 9 mps 735 mmHg 64%
    17:00 +5°C° 0 mm 8 mps 736 mmHg 66%
    18:00 +4°C° 0 mm 7 mps 737 mmHg 70%
    19:00 +4°C° 0 mm 6 mps 738 mmHg 74%
    20:00 +3°C° 0 mm 5 mps 739 mmHg 78%
    21:00 +3°C° 0 mm 4 mps 740 mmHg 81%
    22:00 +3°C° 0 mm 4 mps 741 mmHg 83%
    23:00 +2°C° 0 mm 3 mps 741 mmHg 86%

    28 October, Sunday

    Time Temperature Precipitation Wind Pressure Humidity
    00:00 +2°C° 0 mm 3 mps 742 mmHg 87%
    01:00 +2°C° 0 mm 2 mps 742 mmHg 88%
    02:00 +2°C° 0 mm 2 mps 743 mmHg 89%
    03:00 +3°C° 0 mm 1 mps 743 mmHg 88%
    04:00 +2°C° 0 mm 1 mps 744 mmHg 87%
    05:00 +1°C° 0 mm 0 mps 744 mmHg 86%
    06:00 +1°C° 0 mm 0 mps 745 mmHg 85%
    07:00 +3°C° 0 mm 1 mps 745 mmHg 83%
    08:00 +3°C° 0 mm 1 mps 746 mmHg 82%
    09:00 +4°C° 0 mm 1 mps 746 mmHg 76%
    10:00 +5°C° 0 mm 1 mps 746 mmHg 70%
    11:00 +6°C° 0 mm 1 mps 747 mmHg 64%
    12:00 +7°C° 0 mm 1 mps 747 mmHg 63%
    13:00 +7°C° 0 mm 1 mps 747 mmHg 61%
    14:00 +8°C° 0 mm 1 mps 747 mmHg 59%
    15:00 +7°C° 0.1 mm 1 mps 747 mmHg 63%
    16:00 +5°C° 0.1 mm 2 mps 747 mmHg 66%
    17:00 +5°C° 0.1 mm 2 mps 747 mmHg 70%
    18:00 +4°C° 0.2 mm 2 mps 747 mmHg 71%
    19:00 +3°C° 0.2 mm 3 mps 747 mmHg 72%
    20:00 +3°C° 0.2 mm 3 mps 747 mmHg 73%
    21:00 +3°C° 0.2 mm 3 mps 747 mmHg 74%
    22:00 +3°C° 0.2 mm 4 mps 747 mmHg 74%
    23:00 +1°C° 0.2 mm 4 mps 747 mmHg 74%

    29 October, Monday

    Time Temperature Precipitation Wind Pressure Humidity
    00:00 +1°C° 0.2 mm 5 mps 747 mmHg 76%
    01:00 +1°C° 0.2 mm 5 mps 746 mmHg 77%
    02:00 +1°C° 0.2 mm 5 mps 746 mmHg 78%
    03:00 +1°C° 0.7 mm 6 mps 746 mmHg 80%
    04:00 +1°C° 0.7 mm 6 mps 745 mmHg 82%
    05:00 +1°C° 0.7 mm 6 mps 745 mmHg 84%
    06:00 -1°C° 1.2 mm 7 mps 744 mmHg 86%
    07:00 -1°C° 1.2 mm 7 mps 744 mmHg 88%
    08:00 -1°C° 1.2 mm 7 mps 744 mmHg 91%
    09:00 -1°C° 1 mm 7 mps 744 mmHg 92%
    10:00 -1°C° 1 mm 7 mps 743 mmHg 92%
    11:00 -1°C° 1 mm 7 mps 743 mmHg 93%
    12:00 -1°C° 0.8 mm 7 mps 743 mmHg 93%
    13:00 +1°C° 0.8 mm 6 mps 742 mmHg 93%
    14:00 +1°C° 0.8 mm 6 mps 742 mmHg 94%
    15:00 +1°C° 0.7 mm 6 mps 742 mmHg 94%
    16:00 +1°C° 0.7 mm 6 mps 741 mmHg 94%
    17:00 +1°C° 0.7 mm 6 mps 741 mmHg 94%
    18:00 +2°C° 0.5 mm 6 mps 741 mmHg 95%
    19:00 +2°C° 0.5 mm 5 mps 740 mmHg 95%
    20:00 +2°C° 0.5 mm 5 mps 740 mmHg 96%
    21:00 +3°C° 0.5 mm 5 mps 740 mmHg 96%
    22:00 +4°C° 0.5 mm 4 mps 740 mmHg 97%
    23:00 +4°C° 0.5 mm 4 mps 740 mmHg 97%
    Show more